SNAP-3 JIMI

Last updated on Sat Aug 30 2025 00:03:48 GMT+0000 (Coordinated Universal Time)

1 40975U 15058M 25240.82057699 .00011673 00000+0 84694-3 0 9994 2 40975 64.7664 61.8799 0130396 171.4369 188.9017 14.97607292 70360
UTC large
Height (km)
Speed (km/s)
/
Latitude / Longitude
Inclination (degrees)
Orbital Period (minutes)
Azimuth
Elevation
Range (km)
Doppler Factor

Next 0 passes for location: London (51.5072 / 0.1276)

Sorry there are no passes over London.